Tracking 18784 objects as of 18-August-2017
HD Live streaming from Space Station
objects crossing your sky now

OPS 5058 (DMSP 5B F2)

Track OPS 5058 (DMSP 5B F2) now!
10-day predictions
OPS 5058 (DMSP 5B F2) is classified as:


NORAD ID: 5903
Int'l Code: 1972-018A
Perigee: 781.9 km
Apogee: 856.1 km
Inclination: 99.0 °
Period: 101.1 minutes
Semi major axis: 7189 km
RCS: 1.4687 m2 (large)
Launch date: March 24, 1972
Source: United States (US)
Launch site: AIR FORCE WESTERN TEST RANGE (AFWTR)
Your satellite tracking list
Your tracking list is empty





NASA's NSSDC Master Catalog

Two Line Element Set (TLE):
1 05903U 72018A   17229.76433701 -.00000008  00000-0  16711-4 0  9996
2 05903  98.9838 298.0318 0051599  14.2607 346.0013 14.24009870431284
Source of the keplerian elements: AFSPC